Regional Weather Roundup
Issued by NWS

Home | Current Version | Previous Version | Text Only | Print | Product List | Glossary On
Versions: 1 2 3 4 5 6 7 8 9 10 11 12 13 14 15 16 17 18 19 20 21 22 23 24 25 26 27 28 29 30 31 32 33 34 35 36 37 38 39 40 41 42 43 44 45 46 47 48 49 50
110
ASUS44 KLIX 211910
RWRLA
LOUISIANA WEATHER ROUNDUP
NATIONAL WEATHER SERVICE NEW ORLEANS LA
100 PM CST FRI NOV 21 2014

NOTE: "FAIR" INDICATES FEW OR NO CLOUDS BELOW 12,000 FEET WITH NO
      SIGNIFICANT WEATHER AND/OR OBSTRUCTIONS TO VISIBILITY.
      SKY/WX - SKY CONDITION AND SIGNIFICANT WEATHER.
      TMP - AIR TEMPERATURE.    DP   - DEWPOINT TEMPERATURE.
      RH  - RELATIVE HUMIDITY.  PRES - PRESSURE.
      HX  - HEAT INDEX.         WCI  - WIND CHILL INDEX.

*  THESE STATIONS ARE NOT NWS OR FAA STATIONS AND ARE NOT UNDER
   NWS QUALITY CONTROL.

LAZ040-048-061>063-065-066-069-212000-
SOUTHEAST LOUISIANA

CITY           SKY/WX    TMP DP  RH WIND       PRES   REMARKS
N.O. AUDUBON   NOT AVBL
N.O. INTL ARPT MOSUNNY   70  49  47 E12G21    30.25F
N.O. LAKEFRONT MOSUNNY   66  52  60 E14       30.27F
N.O. DOWNTOWN* FAIR      66  48  52 NE5       30.26F
SLIDELL        MOSUNNY   69  49  48 SE9       30.26F
BATON ROUGE    SUNNY     71  42  35 E17G25    30.24F
BOOTHVILLE     MOSUNNY   68  51  54 E13G20    30.26F
BELLE CHASSE   MOSUNNY   71  46  40 E17G24    30.25F
BOGALUSA*        N/A     73  43  34 SE14G21   30.28F
NEW ROADS*     FAIR      71  45  38 SE14G20   30.22F
GONZALES*      FAIR      71  46  40 E12G18    30.24F
HAMMOND*       SUNNY     72  45  37 SE17G23   30.27F
HOUMA*         SUNNY     72  48  43 E14       30.24F
PORT FOURCHON* CLEAR     68  52  56 E16G23    30.26F

$$

LAZ041-044-053-054-212000-
SOUTHWEST LOUISIANA

CITY           SKY/WX    TMP DP  RH WIND       PRES   REMARKS
LAKE CHARLES   CLOUDY    71  53  52 E16       30.18F
LAFAYETTE      SUNNY     72  38  29 SE9G17    30.21F
PATTERSON      SUNNY     72  46  40 SE10G17   30.25F
SALT POINT       N/A     70  53  54 SE12G20   30.21F
NEW IBERIA     SUNNY     73  47  39 SE14      30.21F
CHENAULT AIRPK CLOUDY    72  54  53 SE20      30.19F

$$

LAZ027-028-212000-
CENTRAL LOUISIANA

CITY           SKY/WX    TMP DP  RH WIND       PRES   REMARKS
FORT POLK      CLOUDY    67  51  56 SE10      30.17F
ALEXANDRIA INT SUNNY     71  46  40 SE20      30.19F
ALEXANDRIA     MOSUNNY   73  45  36 SE15      30.21F

$$

LAZ001-002-212000-
NORTHWEST LOUISIANA

CITY           SKY/WX    TMP DP  RH WIND       PRES   REMARKS
SHREVEPORT     LGT RAIN  60  57  89 SE12      30.17F
BARKSDALE AFB  LGT RAIN  57  57 100 S9        30.18F
DTN SHREVEPORT LGT RAIN  58  53  84 SE10      30.18F

$$

LAZ014-016-212000-
NORTHEAST LOUISIANA

CITY           SKY/WX    TMP DP  RH WIND       PRES   REMARKS
MONROE         CLOUDY    66  48  52 SE7       30.23F
TALLULAH       CLOUDY    72  45  37 S16       30.24F

$$




USA.gov is the U.S. government's official web portal to all federal, state and local government web resources and services.